Weather History for Blacksburg, VA

Change the Weather History Date:

Thursday, November 8, 2012

  Actual Average Record
Temperature  
Mean Temperature 41 °F 46 °F  
Max Temperature 51 °F 59 °F 78 °F (1975)
Min Temperature 31 °F 33 °F 12 °F (1971)
Degree Days  
Heating Degree Days 24 19  
Month to date heating degree days 212 144  
Since 1 July heating degree days 726 671  
Cooling Degree Days 0 0  
Month to date cooling degree days 0 0  
Year to date cooling degree days 716 573  
Moisture  
Dew Point 26 °F    
Average Humidity 51    
Maximum Humidity 70    
Minimum Humidity 32    
Precipitation  
Precipitation 0.00 in 0.09 in 1.25 in (1986)
Month to date precipitation 0.24 0.76  
Year to date precipitation 33.28 35.83  
Snow  
Snow 0.00 in - - ()
Month to date snowfall 0.0  
Since 1 July snowfall 0.6  
Since 1 September snowfall 0.6  
Snow Depth 0.00 in    
Sea Level Pressure  
Sea Level Pressure 30.08 in    
Wind  
Wind Speed 8 mph (WNW)    
Max Wind Speed 16 mph    
Max Gust Speed 23 mph    
Visibility 10 miles    
Events      
T = Trace of Precipitation, MM = Missing Value Source: NWS Daily Summary

Daily Weather History Graph

Daily Weather History Graph

Search for Another Location

Airport:

Trip Planner

Search our weather history database for the weather conditions in past years. The results will help you decide how hot, cold, wet, or windy it might be!

Date:

Astronomy

Nov. 08, 2012 Rise Set
Actual Time 6:53 AM EST 5:16 PM EST
Civil Twilight 6:26 AM EST 5:43 PM EST
Nautical Twilight 5:55 AM EST 6:15 PM EST
Astronomical Twilight 5:24 AM EST 6:45 PM EST
Moon 12:55 AM EST (11/8) 1:50 PM EST (11/8)
Length of Visible Light 11h 17m
Length of Day
10h 22m
Waning Crescent, 33% of the Moon is Illuminated
Nov 8
Waning Crescent
Nov 13
New
Nov 20
First Quarter
Nov 28
Full
Dec 6
Last Quarter

Hourly Weather History & Observations

Time (EST) Temp. Windchill Dew Point Humidity Pressure Visibility Wind Dir Wind Speed Gust Speed Precip Events Conditions
12:15 AM 37.4 °F - 28.4 °F 70% 29.98 in 10.0 mi Calm Calm - N/A   Mostly Cloudy
12:35 AM 37.4 °F - 28.4 °F 70% 29.97 in 10.0 mi Calm Calm - N/A   Overcast
12:55 AM 39.2 °F 35.9 °F 28.4 °F 65% 29.97 in 10.0 mi West 4.6 mph - N/A   Scattered Clouds
1:15 AM 39.2 °F 37.0 °F 28.4 °F 65% 29.97 in 10.0 mi WNW 3.5 mph - N/A   Mostly Cloudy
1:35 AM 39.2 °F 35.0 °F 28.4 °F 65% 29.97 in 10.0 mi WNW 5.8 mph - N/A   Scattered Clouds
1:55 AM 39.2 °F 37.0 °F 28.4 °F 65% 29.98 in 10.0 mi West 3.5 mph - N/A   Clear
2:15 AM 37.4 °F 33.8 °F 28.4 °F 70% 29.98 in 10.0 mi WNW 4.6 mph - N/A   Clear
2:35 AM 39.2 °F 34.2 °F 28.4 °F 65% 29.98 in 10.0 mi WNW 6.9 mph - N/A   Clear
2:55 AM 39.2 °F 34.2 °F 28.4 °F 65% 29.98 in 10.0 mi West 6.9 mph - N/A   Clear
3:15 AM 37.4 °F 31.4 °F 28.4 °F 70% 29.98 in 10.0 mi West 8.1 mph - N/A   Clear
3:35 AM 37.4 °F 30.8 °F 26.6 °F 65% 29.99 in 10.0 mi WNW 9.2 mph - N/A   Clear
3:55 AM 39.2 °F 33.6 °F 26.6 °F 61% 29.99 in 10.0 mi WNW 8.1 mph - N/A   Clear
4:15 AM 37.4 °F 32.8 °F 28.4 °F 70% 30.00 in 10.0 mi West 5.8 mph - N/A   Clear
4:35 AM 37.4 °F 32.8 °F 26.6 °F 65% 30.01 in 10.0 mi West 5.8 mph - N/A   Clear
4:55 AM 35.6 °F 30.7 °F 26.6 °F 70% 30.02 in 10.0 mi WSW 5.8 mph - N/A   Clear
5:15 AM 35.6 °F 30.7 °F 26.6 °F 70% 30.02 in 10.0 mi WSW 5.8 mph - N/A   Clear
5:35 AM 35.6 °F 32.8 °F 26.6 °F 70% 30.03 in 10.0 mi SW 3.5 mph - N/A   Clear
5:55 AM 35.6 °F 31.7 °F 26.6 °F 70% 30.03 in 10.0 mi WSW 4.6 mph - N/A   Clear
6:15 AM 35.6 °F 29.9 °F 26.6 °F 70% 30.03 in 10.0 mi West 6.9 mph - N/A   Clear
6:35 AM 35.6 °F 31.7 °F 26.6 °F 70% 30.04 in 10.0 mi West 4.6 mph - N/A   Clear
6:55 AM 35.6 °F 29.2 °F 26.6 °F 70% 30.05 in 10.0 mi West 8.1 mph - N/A   Clear
7:15 AM 35.6 °F 30.7 °F 26.6 °F 70% 30.05 in 10.0 mi WNW 5.8 mph - N/A   Clear
7:35 AM 37.4 °F 30.3 °F 26.6 °F 65% 30.06 in 10.0 mi WNW 10.4 mph 16.1 mph N/A   Clear
7:55 AM 35.6 °F 29.9 °F 26.6 °F 70% 30.07 in 10.0 mi West 6.9 mph 17.3 mph N/A   Clear
8:15 AM 37.4 °F 30.8 °F 26.6 °F 65% 30.08 in 10.0 mi WNW 9.2 mph 17.3 mph N/A   Clear
8:35 AM 39.2 °F 32.0 °F 28.4 °F 65% 30.09 in 10.0 mi WNW 11.5 mph 17.3 mph N/A   Clear
8:55 AM 39.2 °F 31.6 °F 28.4 °F 65% 30.09 in 10.0 mi WNW 12.7 mph 18.4 mph N/A   Clear
9:15 AM 42.8 °F 37.5 °F 28.4 °F 57% 30.10 in 10.0 mi West 9.2 mph - N/A   Clear
9:35 AM 42.8 °F 37.0 °F 28.4 °F 57% 30.10 in 10.0 mi WNW 10.4 mph 18.4 mph N/A   Clear
9:55 AM 44.6 °F 39.7 °F 28.4 °F 53% 30.11 in 10.0 mi West 9.2 mph 17.3 mph N/A   Clear
10:15 AM 44.6 °F 37.8 °F 26.6 °F 49% 30.11 in 10.0 mi WNW 15.0 mph 23.0 mph N/A   Clear
10:35 AM 46.4 °F 40.7 °F 26.6 °F 46% 30.11 in 10.0 mi WNW 12.7 mph 21.9 mph N/A   Clear
10:55 AM 46.4 °F 40.1 °F 26.6 °F 46% 30.11 in 10.0 mi WNW 15.0 mph 23.0 mph N/A   Clear
11:15 AM 48.2 °F - 26.6 °F 43% 30.11 in 10.0 mi NW 16.1 mph 21.9 mph N/A   Clear
11:35 AM 48.2 °F - 26.6 °F 43% 30.11 in 10.0 mi NW 13.8 mph 17.3 mph N/A   Clear
11:55 AM 50.0 °F - 26.6 °F 40% 30.10 in 10.0 mi NW 13.8 mph 18.4 mph N/A   Clear
12:15 PM 51.8 °F - 26.6 °F 38% 30.09 in 10.0 mi NW 11.5 mph 20.7 mph N/A   Clear
12:35 PM 51.8 °F - 26.6 °F 38% 30.08 in 10.0 mi NW 11.5 mph 17.3 mph N/A   Clear
12:55 PM 51.8 °F - 26.6 °F 38% 30.08 in 10.0 mi NW 16.1 mph 21.9 mph N/A   Clear
1:15 PM 53.6 °F - 26.6 °F 35% 30.08 in 10.0 mi WNW 13.8 mph - N/A   Clear
1:55 PM 53.6 °F - 24.8 °F 33% 30.08 in 10.0 mi WNW 15.0 mph 21.9 mph N/A   Clear
2:15 PM 53.6 °F - 24.8 °F 33% 30.07 in 10.0 mi WNW 11.5 mph 19.6 mph N/A   Clear
2:35 PM 53.6 °F - 24.8 °F 33% 30.07 in 10.0 mi WNW 6.9 mph 18.4 mph N/A   Clear
2:55 PM 53.6 °F - 24.8 °F 33% 30.07 in 10.0 mi WNW 8.1 mph - N/A   Clear
3:15 PM 53.6 °F - 24.8 °F 33% 30.07 in 10.0 mi WNW 6.9 mph - N/A   Clear
3:35 PM 53.6 °F - 24.8 °F 33% 30.08 in 10.0 mi WNW 11.5 mph 18.4 mph N/A   Clear
3:55 PM 51.8 °F - 24.8 °F 35% 30.08 in 10.0 mi WNW 8.1 mph - N/A   Clear
4:15 PM 51.8 °F - 24.8 °F 35% 30.09 in 10.0 mi WNW 9.2 mph - N/A   Clear
4:35 PM 50.0 °F - 24.8 °F 37% 30.09 in 10.0 mi WNW 8.1 mph - N/A   Clear
4:55 PM 48.2 °F - 23.0 °F 37% 30.10 in 10.0 mi NW 8.1 mph - N/A   Clear
5:15 PM 48.2 °F - 23.0 °F 37% 30.10 in 10.0 mi WNW 9.2 mph - N/A   Clear
5:35 PM 46.4 °F 42.4 °F 23.0 °F 40% 30.11 in 10.0 mi NW 8.1 mph 16.1 mph N/A   Clear
5:55 PM 46.4 °F 40.4 °F 23.0 °F 40% 30.11 in 10.0 mi NW 13.8 mph - N/A   Clear
6:15 PM 46.4 °F 41.1 °F 23.0 °F 40% 30.12 in 10.0 mi NW 11.5 mph - N/A   Clear
6:35 PM 44.6 °F 38.4 °F 24.8 °F 46% 30.13 in 10.0 mi NW 12.7 mph 17.3 mph N/A   Clear
6:55 PM 44.6 °F 39.2 °F 24.8 °F 46% 30.13 in 10.0 mi NW 10.4 mph 18.4 mph N/A   Clear
7:15 PM 44.6 °F 40.2 °F 24.8 °F 46% 30.13 in 10.0 mi WNW 8.1 mph 16.1 mph N/A   Clear
7:35 PM 44.6 °F 40.7 °F 24.8 °F 46% 30.13 in 10.0 mi WNW 6.9 mph - N/A   Clear
7:55 PM 44.6 °F 40.7 °F 24.8 °F 46% 30.14 in 10.0 mi WNW 6.9 mph - N/A   Clear
8:15 PM 44.6 °F 43.1 °F 26.6 °F 49% 30.15 in 10.0 mi West 3.5 mph - N/A   Clear
8:35 PM 42.8 °F 40.1 °F 26.6 °F 53% 30.15 in 10.0 mi West 4.6 mph - N/A   Clear
8:55 PM 42.8 °F 40.1 °F 26.6 °F 53% 30.15 in 10.0 mi WNW 4.6 mph - N/A   Clear
9:15 PM 41.0 °F 38.0 °F 26.6 °F 57% 30.16 in 10.0 mi West 4.6 mph - N/A   Clear
9:35 PM 41.0 °F 39.0 °F 26.6 °F 57% 30.16 in 10.0 mi WNW 3.5 mph - N/A   Clear
9:55 PM 39.2 °F - 26.6 °F 61% 30.17 in 10.0 mi Calm Calm - N/A   Clear
10:15 PM 37.4 °F - 26.6 °F 65% 30.17 in 10.0 mi Calm Calm - N/A   Clear
10:35 PM 37.4 °F 32.8 °F 26.6 °F 65% 30.17 in 10.0 mi West 5.8 mph - N/A   Clear
10:55 PM 39.2 °F 34.2 °F 26.6 °F 61% 30.17 in 10.0 mi WNW 6.9 mph - N/A   Clear
11:15 PM 39.2 °F 37.0 °F 28.4 °F 65% 30.17 in 10.0 mi WNW 3.5 mph - N/A   Clear
11:35 PM 37.4 °F - 28.4 °F 70% 30.18 in 10.0 mi Calm Calm - N/A   Clear
11:55 PM 35.6 °F - 26.6 °F 70% 30.18 in 10.0 mi Calm Calm - N/A   Clear